Find Starlink 34511

NORAD ID: 65214 Int'l Des: 2025-176 Owner: SPXS Country: US Constellation: starlink operational
LEOCIRCULAR

リアルタイム位置

3D地球を読み込み中...

Starlink 34511について

説明を読み込み中...

次回通過

Passes for default location (London). Set your location on the main map for personalized predictions.

高度履歴

Loading altitude history...

軌道要素

1 65214U 25176S 26106.89171520 .00014615 00000-0 50448-3 0 9998
2 65214 53.1597 335.6854 0001924 105.2991 254.8223 15.30206962 38907
Epoch: Apr 16, 2026 • Age: 19 hours

現在のステータス

高度 480.4 km
速度 7.63 km/s
衛星直下点 53.28°N, 35.68°W
打ち上げ日 Aug 14, 2025
運用期間 0.6 years
タイプ internet

技術仕様

分類 Payload
質量 575.00 kg
乾燥質量 530.00 kg
総質量 575.00 kg
長さ 0.30 m
直径 4.10 m
スパン 29.00 m
形状 Box + pan
製造者 SPXS
バスタイプ Starlink V2MO
フェーズステータス In Orbit
所有者/国 SPXS/US

Most Searched